• In Austria
  • List of Countries
  • For 7 days
  • Water Temperature
  • Satellite Maps
  • Weather Map
  • News
  • Weather Widgets
  • user-avatar
    Login

    Hourly Weather Ordino

    Today, 17 December, Sunday

    Time Temperature Precipitation Wind Pressure Humidity
    00:00 -8°C° 0 mm 3 mps 634 mmHg 77%
    01:00 -8°C° 0 mm 3 mps 634 mmHg 76%
    02:00 -8°C° 0 mm 3 mps 634 mmHg 76%
    03:00 -9°C° 0 mm 4 mps 634 mmHg 75%
    04:00 -8°C° 0 mm 3 mps 634 mmHg 75%
    05:00 -9°C° 0 mm 3 mps 634 mmHg 74%
    06:00 -10°C° 0 mm 4 mps 634 mmHg 74%
    07:00 -9°C° 0 mm 4 mps 635 mmHg 71%
    08:00 -7°C° 0 mm 3 mps 636 mmHg 68%
    09:00 -6°C° 0 mm 3 mps 636 mmHg 65%
    10:00 -5°C° 0 mm 4 mps 637 mmHg 62%
    11:00 -3°C° 0 mm 4 mps 637 mmHg 59%
    12:00 -1°C° 0 mm 3 mps 638 mmHg 61%
    13:00 -1°C° 0 mm 3 mps 638 mmHg 62%
    14:00 -1°C° 0 mm 3 mps 637 mmHg 64%
    15:00 -1°C° 0 mm 3 mps 637 mmHg 65%
    16:00 -2°C° 0 mm 3 mps 637 mmHg 69%
    17:00 -4°C° 0 mm 3 mps 637 mmHg 73%
    18:00 -5°C° 0 mm 3 mps 637 mmHg 77%
    19:00 -5°C° 0 mm 3 mps 638 mmHg 78%
    20:00 -5°C° 0 mm 3 mps 638 mmHg 79%
    21:00 -5°C° 0 mm 3 mps 638 mmHg 80%
    22:00 -5°C° 0 mm 3 mps 638 mmHg 80%
    23:00 -5°C° 0 mm 3 mps 639 mmHg 81%

    Tomorrow, 18 December, Monday

    Time Temperature Precipitation Wind Pressure Humidity
    00:00 -4°C° 0 mm 3 mps 639 mmHg 81%
    01:00 -5°C° 0 mm 3 mps 638 mmHg 82%
    02:00 -5°C° 0 mm 3 mps 638 mmHg 83%
    03:00 -5°C° 0 mm 3 mps 638 mmHg 83%
    04:00 -5°C° 0 mm 3 mps 638 mmHg 83%
    05:00 -5°C° 0 mm 3 mps 638 mmHg 82%
    06:00 -4°C° 0 mm 3 mps 638 mmHg 81%
    07:00 -4°C° 0 mm 3 mps 638 mmHg 79%
    08:00 -2°C° 0 mm 3 mps 638 mmHg 77%
    09:00 -1°C° 0 mm 2 mps 639 mmHg 75%
    10:00 0°C° 0.2 mm 3 mps 638 mmHg 75%
    11:00 0°C° 0.2 mm 3 mps 638 mmHg 75%
    12:00 +1°C° 0.2 mm 3 mps 638 mmHg 76%
    13:00 +1°C° 0.9 mm 3 mps 637 mmHg 78%
    14:00 +2°C° 0.9 mm 2 mps 636 mmHg 81%
    15:00 +2°C° 0.9 mm 2 mps 636 mmHg 83%
    16:00 +1°C° 1.1 mm 3 mps 635 mmHg 85%
    17:00 0°C° 1.1 mm 3 mps 635 mmHg 87%
    18:00 0°C° 1.1 mm 3 mps 635 mmHg 89%
    19:00 0°C° 0.8 mm 3 mps 635 mmHg 90%
    20:00 -1°C° 0.8 mm 4 mps 635 mmHg 90%
    21:00 -1°C° 0.8 mm 4 mps 635 mmHg 90%
    22:00 -2°C° 0.2 mm 4 mps 635 mmHg 91%
    23:00 -1°C° 0.2 mm 3 mps 635 mmHg 91%

    Day after tomorrow, 19 December, Tuesday

    Time Temperature Precipitation Wind Pressure Humidity
    00:00 -2°C° 0.2 mm 3 mps 635 mmHg 91%
    01:00 -4°C° 0 mm 3 mps 636 mmHg 91%
    02:00 -5°C° 0 mm 3 mps 636 mmHg 91%
    03:00 -5°C° 0 mm 3 mps 636 mmHg 91%
    04:00 -6°C° 0 mm 3 mps 636 mmHg 90%
    05:00 -7°C° 0 mm 3 mps 636 mmHg 90%
    06:00 -7°C° 0 mm 3 mps 636 mmHg 89%
    07:00 -6°C° 0 mm 2 mps 637 mmHg 85%
    08:00 -5°C° 0 mm 2 mps 638 mmHg 81%
    09:00 -4°C° 0 mm 2 mps 638 mmHg 77%
    10:00 -3°C° 0 mm 2 mps 639 mmHg 73%
    11:00 -1°C° 0 mm 2 mps 639 mmHg 69%
    12:00 +1°C° 0 mm 2 mps 640 mmHg 65%
    13:00 +1°C° 0 mm 2 mps 640 mmHg 67%
    14:00 +1°C° 0 mm 2 mps 640 mmHg 70%
    15:00 -1°C° 0 mm 2 mps 639 mmHg 72%
    16:00 -2°C° 0 mm 2 mps 639 mmHg 77%
    17:00 -4°C° 0 mm 2 mps 639 mmHg 82%
    18:00 -6°C° 0 mm 2 mps 639 mmHg 87%
    19:00 -6°C° 0 mm 2 mps 639 mmHg 85%
    20:00 -6°C° 0 mm 2 mps 639 mmHg 84%
    21:00 -7°C° 0 mm 2 mps 639 mmHg 83%
    22:00 -6°C° 0 mm 2 mps 639 mmHg 81%
    23:00 -6°C° 0 mm 2 mps 639 mmHg 79%

    20 December, Wednesday

    Time Temperature Precipitation Wind Pressure Humidity
    00:00 -6°C° 0 mm 2 mps 639 mmHg 77%
    01:00 -6°C° 0 mm 2 mps 639 mmHg 75%
    02:00 -6°C° 0 mm 2 mps 639 mmHg 73%
    03:00 -6°C° 0 mm 2 mps 639 mmHg 71%
    04:00 -6°C° 0 mm 2 mps 639 mmHg 71%
    05:00 -6°C° 0 mm 2 mps 639 mmHg 70%
    06:00 -6°C° 0 mm 2 mps 639 mmHg 70%
    07:00 -5°C° 0 mm 2 mps 640 mmHg 68%
    08:00 -3°C° 0 mm 2 mps 640 mmHg 67%
    09:00 -2°C° 0 mm 2 mps 641 mmHg 66%
    10:00 -1°C° 0 mm 2 mps 641 mmHg 66%
    11:00 +1°C° 0 mm 3 mps 641 mmHg 65%
    12:00 +2°C° 0 mm 3 mps 642 mmHg 65%
    13:00 +2°C° 0 mm 3 mps 642 mmHg 67%
    14:00 +2°C° 0 mm 3 mps 641 mmHg 70%
    15:00 +1°C° 0 mm 3 mps 641 mmHg 72%
    16:00 0°C° 0 mm 3 mps 641 mmHg 77%
    17:00 -2°C° 0 mm 3 mps 641 mmHg 81%
    18:00 -3°C° 0 mm 2 mps 640 mmHg 85%
    19:00 -4°C° 0 mm 3 mps 641 mmHg 85%
    20:00 -4°C° 0 mm 3 mps 641 mmHg 84%
    21:00 -4°C° 0 mm 3 mps 641 mmHg 84%
    22:00 -3°C° 0 mm 2 mps 642 mmHg 84%
    23:00 -3°C° 0 mm 2 mps 642 mmHg 83%

    21 December, Thursday

    Time Temperature Precipitation Wind Pressure Humidity
    00:00 -3°C° 0 mm 2 mps 642 mmHg 83%
    01:00 -3°C° 0 mm 2 mps 642 mmHg 83%
    02:00 -3°C° 0 mm 2 mps 642 mmHg 83%
    03:00 -3°C° 0 mm 2 mps 642 mmHg 83%
    04:00 -4°C° 0 mm 2 mps 642 mmHg 82%
    05:00 -4°C° 0 mm 2 mps 642 mmHg 81%
    06:00 -4°C° 0 mm 2 mps 642 mmHg 81%
    07:00 -3°C° 0 mm 2 mps 643 mmHg 78%
    08:00 -2°C° 0 mm 2 mps 644 mmHg 75%
    09:00 -1°C° 0 mm 2 mps 644 mmHg 72%
    10:00 +2°C° 0 mm 2 mps 645 mmHg 71%
    11:00 +3°C° 0 mm 2 mps 645 mmHg 70%
    12:00 +4°C° 0 mm 2 mps 645 mmHg 69%
    13:00 +4°C° 0 mm 2 mps 645 mmHg 70%
    14:00 +4°C° 0 mm 2 mps 645 mmHg 71%
    15:00 +3°C° 0 mm 2 mps 644 mmHg 72%
    16:00 +2°C° 0 mm 2 mps 644 mmHg 75%
    17:00 -1°C° 0 mm 2 mps 644 mmHg 77%
    18:00 -2°C° 0 mm 2 mps 643 mmHg 80%
    19:00 -2°C° 0 mm 2 mps 643 mmHg 78%
    20:00 -2°C° 0 mm 2 mps 644 mmHg 77%
    21:00 -2°C° 0 mm 2 mps 644 mmHg 76%
    22:00 -2°C° 0 mm 2 mps 644 mmHg 76%
    23:00 -2°C° 0 mm 2 mps 644 mmHg 76%

    22 December, Friday

    Time Temperature Precipitation Wind Pressure Humidity
    00:00 -2°C° 0 mm 2 mps 643 mmHg 76%
    01:00 -2°C° 0 mm 2 mps 643 mmHg 77%
    02:00 -2°C° 0 mm 2 mps 643 mmHg 77%
    03:00 -2°C° 0 mm 3 mps 643 mmHg 77%
    04:00 -2°C° 0 mm 3 mps 643 mmHg 78%
    05:00 -2°C° 0 mm 3 mps 643 mmHg 78%
    06:00 -2°C° 0 mm 3 mps 643 mmHg 79%
    07:00 -1°C° 0 mm 3 mps 643 mmHg 78%
    08:00 0°C° 0 mm 3 mps 643 mmHg 77%
    09:00 +1°C° 0 mm 3 mps 644 mmHg 75%
    10:00 +2°C° 0 mm 3 mps 644 mmHg 74%
    11:00 +3°C° 0 mm 3 mps 644 mmHg 73%
    12:00 +4°C° 0 mm 3 mps 644 mmHg 72%
    13:00 +3°C° 0 mm 3 mps 643 mmHg 73%
    14:00 +3°C° 0 mm 3 mps 643 mmHg 73%
    15:00 +2°C° 0 mm 3 mps 642 mmHg 74%
    16:00 +1°C° 0 mm 3 mps 642 mmHg 78%
    17:00 -1°C° 0 mm 3 mps 642 mmHg 82%
    18:00 -2°C° 0 mm 3 mps 641 mmHg 85%
    19:00 -2°C° 0 mm 3 mps 641 mmHg 85%
    20:00 -4°C° 0 mm 3 mps 641 mmHg 85%
    21:00 -4°C° 0 mm 3 mps 641 mmHg 84%
    22:00 -4°C° 0 mm 3 mps 641 mmHg 83%
    23:00 -4°C° 0 mm 3 mps 640 mmHg 82%
    Show more